,,,PA_Meas_PMT16A,,PR_Meas_QMR101_102,,RH_Meas_QMH101,,SR_Meas_QMS101,,TA_Meas_QMH101,,GenWind,,GenWind,
date,time,status,PA,status,PR,status,RH,status,SR,status,TA,status,DirAvg,status,SpdAvg,
2012-04-15, 00:00:04,VALID,1004.89,VALID,0,VALID,92.2332,VALID,0,VALID,24.8503,VALID,38,VALID,0.501953,
2012-04-15, 00:01:04,VALID,1004.89,VALID,0,VALID,92.2561,VALID,0,VALID,24.8503,VALID,38,VALID,0.526953,
2012-04-15, 00:02:04,VALID,1004.86,VALID,0,VALID,92.3171,VALID,0,VALID,24.8095,VALID,38,VALID,0.505859,
2012-04-15, 00:03:04,VALID,1004.89,VALID,0,VALID,92.3857,VALID,0.0815089,VALID,24.8308,VALID,38,VALID,0.468359,
2012-04-15, 00:04:04,VALID,1004.86,VALID,0,VALID,92.401,VALID,0,VALID,24.8522,VALID,38,VALID,0.377734,
2012-04-15, 00:05:04,VALID,1004.85,VALID,0,VALID,92.4315,VALID,0,VALID,24.8113,VALID,38,VALID,0.425781,
2012-04-15, 00:06:04,VALID,1004.82,VALID,0,VALID,92.4391,VALID,0,VALID,24.8113,VALID,38,VALID,0.366016,
2012-04-15, 00:07:04,VALID,1004.83,VALID,0,VALID,92.4544,VALID,0,VALID,24.8113,VALID,38,VALID,0.198047,
2012-04-15, 00:08:04,VALID,1004.83,VALID,0,VALID,92.462,VALID,0,VALID,24.8132,VALID,38,VALID,0.283203,
2012-04-15, 00:09:04,VALID,1004.79,VALID,0,VALID,92.4773,VALID,0,VALID,24.7919,VALID,38,VALID,0.414453,
2012-04-15, 00:10:04,VALID,1004.79,VALID,0,VALID,92.5231,VALID,0,VALID,24.7919,VALID,38,VALID,0.207031,
2012-04-15, 00:11:04,VALID,1004.77,VALID,0,VALID,92.5688,VALID,0,VALID,24.8113,VALID,38,VALID,0.353125,
2012-04-15, 00:12:04,VALID,1004.76,VALID,0,VALID,92.6299,VALID,0,VALID,24.8113,VALID,38,VALID,0.278906,
2012-04-15, 00:13:04,VALID,1004.74,VALID,0,VALID,92.6756,VALID,0,VALID,24.8308,VALID,38,VALID,0.285156,
2012-04-15, 00:14:04,VALID,1004.73,VALID,0,VALID,92.6909,VALID,0,VALID,24.8308,VALID,38,VALID,0.423828,
2012-04-15, 00:15:04,VALID,1004.73,VALID,0,VALID,92.6451,VALID,0,VALID,24.8308,VALID,38,VALID,0.658203,
2012-04-15, 00:16:04,VALID,1004.68,VALID,0,VALID,92.5917,VALID,0,VALID,24.8503,VALID,38,VALID,0.571094,
2012-04-15, 00:17:04,VALID,1004.7,VALID,0,VALID,92.5688,VALID,0,VALID,24.8308,VALID,38,VALID,0.617578,
2012-04-15, 00:18:04,VALID,1004.68,VALID,0,VALID,92.5154,VALID,0,VALID,24.8308,VALID,38,VALID,0.499609,
2012-04-15, 00:19:04,VALID,1004.66,VALID,0,VALID,92.4468,VALID,0,VALID,24.8113,VALID,38,VALID,0.488281,
2012-04-15, 00:20:04,VALID,1004.65,VALID,0,VALID,92.4391,VALID,0,VALID,24.8132,VALID,38,VALID,0.333594,
2012-04-15, 00:21:04,VALID,1004.62,VALID,0,VALID,92.5002,VALID,0,VALID,24.7919,VALID,38,VALID,0.348828,
2012-04-15, 00:22:04,VALID,1004.61,VALID,0,VALID,92.4849,VALID,0,VALID,24.8132,VALID,38,VALID,0.190234,
2012-04-15, 00:23:04,VALID,1004.62,VALID,0,VALID,92.5154,VALID,0,VALID,24.7919,VALID,38,VALID,0.143359,
2012-04-15, 00:24:04,VALID,1004.59,VALID,0,VALID,92.4925,VALID,0,VALID,24.7529,VALID,38,VALID,0.202734,
2012-04-15, 00:25:04,VALID,1004.57,VALID,0,VALID,92.462,VALID,0,VALID,24.7529,VALID,38,VALID,0.354688,
2012-04-15, 00:26:04,VALID,1004.58,VALID,0,VALID,92.4773,VALID,0,VALID,24.7743,VALID,38,VALID,0.166797,
2012-04-15, 00:27:04,VALID,1004.58,VALID,0,VALID,92.4925,VALID,0,VALID,24.7335,VALID,38,VALID,0.452734,
2012-04-15, 00:28:04,VALID,1004.56,VALID,0,VALID,92.5002,VALID,0,VALID,24.7548,VALID,38,VALID,0.442187,
2012-04-15, 00:29:04,VALID,1004.56,VALID,0,VALID,92.5536,VALID,0,VALID,24.714,VALID,38,VALID,0.437891,
2012-04-15, 00:30:04,VALID,1004.56,VALID,0,VALID,92.6299,VALID,0,VALID,24.714,VALID,38,VALID,0.433594,
2012-04-15, 00:31:04,VALID,1004.55,VALID,0,VALID,92.6604,VALID,0,VALID,24.714,VALID,38,VALID,0.358203,
2012-04-15, 00:32:04,VALID,1004.55,VALID,0,VALID,92.6604,VALID,0,VALID,24.7353,VALID,38,VALID,0.304688,
2012-04-15, 00:33:04,VALID,1004.52,VALID,0,VALID,92.6909,VALID,0,VALID,24.6945,VALID,38,VALID,0.373828,
2012-04-15, 00:34:04,VALID,1004.53,VALID,0,VALID,92.6528,VALID,0,VALID,24.675,VALID,38,VALID,0.319531,
2012-04-15, 00:35:04,VALID,1004.5,VALID,0,VALID,92.6985,VALID,0,VALID,24.675,VALID,38,VALID,0.311719,
2012-04-15, 00:36:04,VALID,1004.46,VALID,0,VALID,92.6756,VALID,0,VALID,24.6342,VALID,38,VALID,0.296094,
2012-04-15, 00:37:04,VALID,1004.46,VALID,0,VALID,92.7367,VALID,0,VALID,24.6964,VALID,38,VALID,0.295312,
2012-04-15, 00:38:04,VALID,1004.45,VALID,0,VALID,92.7901,VALID,0,VALID,24.6556,VALID,38,VALID,0.240625,
2012-04-15, 00:39:04,VALID,1004.44,VALID,0,VALID,92.7901,VALID,0.0815089,VALID,24.6361,VALID,38,VALID,0.344922,
2012-04-15, 00:40:04,VALID,1004.42,VALID,0,VALID,92.7824,VALID,0,VALID,24.6361,VALID,38,VALID,0.321875,
2012-04-15, 00:41:04,VALID,1004.41,VALID,0,VALID,92.729,VALID,0,VALID,24.6166,VALID,38,VALID,0.357812,
2012-04-15, 00:42:04,VALID,1004.36,VALID,0,VALID,92.668,VALID,0,VALID,24.5972,VALID,38,VALID,0.457812,
2012-04-15, 00:43:04,VALID,1004.37,VALID,0,VALID,92.6833,VALID,0,VALID,24.5972,VALID,38,VALID,0.266016,
2012-04-15, 00:44:04,VALID,1004.36,VALID,0,VALID,92.6985,VALID,0,VALID,24.5777,VALID,38,VALID,0.340625,
2012-04-15, 00:45:04,VALID,1004.37,VALID,0,VALID,92.7672,VALID,0,VALID,24.5582,VALID,38,VALID,0.466016,
2012-04-15, 00:46:04,VALID,1004.34,VALID,0,VALID,92.7443,VALID,0,VALID,24.5582,VALID,38,VALID,0.253516,
2012-04-15, 00:47:04,VALID,1004.33,VALID,0,VALID,92.7367,VALID,0,VALID,24.5388,VALID,38,VALID,0.229297,
2012-04-15, 00:48:04,VALID,1004.31,VALID,0,VALID,92.7519,VALID,0,VALID,24.5388,VALID,38,VALID,0.201562,
2012-04-15, 00:49:04,VALID,1004.3,VALID,0,VALID,92.7977,VALID,0,VALID,24.5193,VALID,38,VALID,0.280859,
2012-04-15, 00:50:04,VALID,1004.32,VALID,0,VALID,92.8206,VALID,0,VALID,24.5193,VALID,38,VALID,0.255859,
2012-04-15, 00:51:04,VALID,1004.28,VALID,0,VALID,92.8664,VALID,0,VALID,24.4998,VALID,38,VALID,0.215234,
2012-04-15, 00:52:04,VALID,1004.24,VALID,0,VALID,92.8969,VALID,0,VALID,24.4998,VALID,38,VALID,0.324609,
2012-04-15, 00:53:04,VALID,1004.22,VALID,0,VALID,92.9198,VALID,0,VALID,24.5193,VALID,38,VALID,0.249219,
2012-04-15, 00:54:04,VALID,1004.18,VALID,0,VALID,92.9121,VALID,0,VALID,24.4998,VALID,38,VALID,0.369922,
2012-04-15, 00:55:04,VALID,1004.14,VALID,0,VALID,92.9732,VALID,0,VALID,24.5212,VALID,38,VALID,0.269141,
2012-04-15, 00:56:04,VALID,1004.11,VALID,0,VALID,93.0571,VALID,0,VALID,24.5212,VALID,38,VALID,0.355469,
2012-04-15, 00:57:04,VALID,1004.09,VALID,0,VALID,93.0342,VALID,0,VALID,24.4998,VALID,38,VALID,0.410156,
2012-04-15, 00:58:04,VALID,1004.1,VALID,0,VALID,93.0723,VALID,0,VALID,24.4998,VALID,38,VALID,0.416797,
2012-04-15, 00:59:04,VALID,1004.06,VALID,0,VALID,93.0952,VALID,0,VALID,24.4998,VALID,38,VALID,0.132031,
2012-04-15, 01:00:04,VALID,1004.08,VALID,0,VALID,93.1181,VALID,0,VALID,24.4804,VALID,38,VALID,0,
2012-04-15, 01:01:04,VALID,1004.06,VALID,0,VALID,93.0952,VALID,0,VALID,24.5017,VALID,38,VALID,0,
2012-04-15, 01:02:04,VALID,1004.07,VALID,0,VALID,93.1029,VALID,0,VALID,24.4804,VALID,38,VALID,0,
2012-04-15, 01:03:04,VALID,1004.07,VALID,0,VALID,93.0723,VALID,0,VALID,24.4609,VALID,38,VALID,0,
2012-04-15, 01:04:04,VALID,1004.06,VALID,0,VALID,93.0571,VALID,0,VALID,24.4414,VALID,38,VALID,0,
2012-04-15, 01:05:04,VALID,1004.06,VALID,0,VALID,93.1181,VALID,0,VALID,24.4414,VALID,38,VALID,0,
2012-04-15, 01:06:04,VALID,1004.03,VALID,0,VALID,93.1486,VALID,0,VALID,24.4414,VALID,38,VALID,0,
2012-04-15, 01:07:04,VALID,1004.01,VALID,0,VALID,93.2097,VALID,0,VALID,24.4414,VALID,38,VALID,0,
2012-04-15, 01:08:04,VALID,1003.99,VALID,0,VALID,93.2325,VALID,0,VALID,24.4396,VALID,38,VALID,0,
2012-04-15, 01:09:04,VALID,1003.99,VALID,0,VALID,93.2402,VALID,0,VALID,24.4628,VALID,38,VALID,0,
2012-04-15, 01:10:04,VALID,1003.93,VALID,0,VALID,93.3012,VALID,0,VALID,24.4609,VALID,38,VALID,0,
2012-04-15, 01:11:04,VALID,1003.94,VALID,0,VALID,93.2325,VALID,0,VALID,24.4822,VALID,38,VALID,0,
2012-04-15, 01:12:04,VALID,1003.89,VALID,0,VALID,93.2402,VALID,0,VALID,24.4609,VALID,35,VALID,0.378125,
2012-04-15, 01:13:04,VALID,1003.89,VALID,0,VALID,93.2631,VALID,0.0815089,VALID,24.4804,VALID,35,VALID,0.520703,
2012-04-15, 01:14:04,VALID,1003.89,VALID,0,VALID,93.2859,VALID,0,VALID,24.4804,VALID,35,VALID,0.433203,
2012-04-15, 01:15:04,VALID,1003.88,VALID,0,VALID,93.2402,VALID,0.0815089,VALID,24.4998,VALID,35,VALID,0.31875,
2012-04-15, 01:16:04,VALID,1003.86,VALID,0,VALID,93.2097,VALID,0.0815089,VALID,24.4998,VALID,35,VALID,0.249609,
2012-04-15, 01:17:04,VALID,1003.86,VALID,0,VALID,93.1334,VALID,0,VALID,24.4998,VALID,35,VALID,0.0117188,
2012-04-15, 01:18:04,VALID,1003.85,VALID,0,VALID,93.1029,VALID,0,VALID,24.4804,VALID,35,VALID,0,
2012-04-15, 01:19:04,VALID,1003.83,VALID,0,VALID,93.08,VALID,0,VALID,24.4609,VALID,35,VALID,0,
2012-04-15, 01:20:04,VALID,1003.82,VALID,0,VALID,93.1181,VALID,0.0815089,VALID,24.4609,VALID,35,VALID,0,
2012-04-15, 01:21:04,VALID,1003.84,VALID,0,VALID,93.141,VALID,0,VALID,24.4609,VALID,35,VALID,0,
2012-04-15, 01:22:04,VALID,1003.83,VALID,0,VALID,93.1334,VALID,0,VALID,24.4609,VALID,35,VALID,0.247656,
2012-04-15, 01:23:04,VALID,1003.85,VALID,0,VALID,93.1639,VALID,0,VALID,24.4396,VALID,35,VALID,0.520703,
2012-04-15, 01:24:04,VALID,1003.83,VALID,0,VALID,93.1791,VALID,0,VALID,24.4628,VALID,35,VALID,0.448438,
2012-04-15, 01:25:04,VALID,1003.87,VALID,0,VALID,93.141,VALID,0,VALID,24.4433,VALID,35,VALID,0.441016,
2012-04-15, 01:26:04,VALID,1003.87,VALID,0,VALID,93.1944,VALID,0,VALID,24.4628,VALID,35,VALID,0.492969,
2012-04-15, 01:27:04,VALID,1003.89,VALID,0,VALID,93.2325,VALID,0,VALID,24.4628,VALID,35,VALID,0.548047,
2012-04-15, 01:28:04,VALID,1003.88,VALID,0,VALID,93.2173,VALID,0,VALID,24.4822,VALID,35,VALID,0.464453,
2012-04-15, 01:29:04,VALID,1003.9,VALID,0,VALID,93.2478,VALID,0,VALID,24.4822,VALID,35,VALID,0.383594,
2012-04-15, 01:30:04,VALID,1003.83,VALID,0,VALID,93.2554,VALID,0,VALID,24.5035,VALID,35,VALID,0.491016,
2012-04-15, 01:31:04,VALID,1003.85,VALID,0,VALID,93.2554,VALID,0,VALID,24.5017,VALID,35,VALID,0.508984,
2012-04-15, 01:32:04,VALID,1003.85,VALID,0,VALID,93.2173,VALID,0,VALID,24.5212,VALID,35,VALID,0.392969,
2012-04-15, 01:33:04,VALID,1003.8,VALID,0,VALID,93.2631,VALID,0,VALID,24.5017,VALID,35,VALID,0.516406,
2012-04-15, 01:34:04,VALID,1003.8,VALID,0,VALID,93.2936,VALID,0,VALID,24.4804,VALID,35,VALID,0.477734,
2012-04-15, 01:35:04,VALID,1003.8,VALID,0,VALID,93.3317,VALID,0,VALID,24.5017,VALID,35,VALID,0.582031,
2012-04-15, 01:36:04,VALID,1003.79,VALID,0,VALID,93.3241,VALID,0,VALID,24.4998,VALID,35,VALID,0.446484,
2012-04-15, 01:37:04,VALID,1003.77,VALID,0,VALID,93.3241,VALID,0,VALID,24.5406,VALID,35,VALID,0.498437,
2012-04-15, 01:38:04,VALID,1003.76,VALID,0,VALID,93.3928,VALID,0,VALID,24.5796,VALID,35,VALID,0.694922,
2012-04-15, 01:39:04,VALID,1003.75,VALID,0,VALID,93.3546,VALID,0.0815089,VALID,24.6166,VALID,35,VALID,0.539844,
2012-04-15, 01:40:04,VALID,1003.77,VALID,0,VALID,93.2859,VALID,0,VALID,24.6148,VALID,35,VALID,0.470703,
2012-04-15, 01:41:04,VALID,1003.75,VALID,0,VALID,93.1639,VALID,0.0815089,VALID,24.6769,VALID,35,VALID,0.427344,
2012-04-15, 01:42:04,VALID,1003.8,VALID,0,VALID,93.08,VALID,0,VALID,24.675,VALID,35,VALID,0.378906,
2012-04-15, 01:43:04,VALID,1003.78,VALID,0,VALID,92.8969,VALID,0,VALID,24.714,VALID,35,VALID,0.00117188,
2012-04-15, 01:44:04,VALID,1003.75,VALID,0,VALID,92.6909,VALID,0,VALID,24.6945,VALID,35,VALID,0.346875,
2012-04-15, 01:45:04,VALID,1003.75,VALID,0,VALID,92.5612,VALID,0,VALID,24.675,VALID,35,VALID,0.147656,
2012-04-15, 01:46:04,VALID,1003.73,VALID,0,VALID,92.4925,VALID,0,VALID,24.675,VALID,35,VALID,0.00195313,
2012-04-15, 01:47:04,VALID,1003.74,VALID,0,VALID,92.4391,VALID,0,VALID,24.6556,VALID,35,VALID,0,
2012-04-15, 01:48:04,VALID,1003.7,VALID,0,VALID,92.4315,VALID,0,VALID,24.6556,VALID,35,VALID,0,
2012-04-15, 01:49:04,VALID,1003.69,VALID,0,VALID,92.401,VALID,0,VALID,24.6166,VALID,35,VALID,0,
2012-04-15, 01:50:04,VALID,1003.67,VALID,0,VALID,92.3629,VALID,0,VALID,24.5972,VALID,35,VALID,0,
2012-04-15, 01:51:04,VALID,1003.68,VALID,0,VALID,92.3857,VALID,0.0815089,VALID,24.6166,VALID,35,VALID,0,
2012-04-15, 01:52:04,VALID,1003.67,VALID,0,VALID,92.3934,VALID,0,VALID,24.5777,VALID,35,VALID,0.0195313,
2012-04-15, 01:53:04,VALID,1003.7,VALID,0,VALID,92.4239,VALID,0.0815089,VALID,24.5582,VALID,35,VALID,0,
2012-04-15, 01:54:04,VALID,1003.69,VALID,0,VALID,92.4544,VALID,0,VALID,24.5582,VALID,35,VALID,0.00664063,
2012-04-15, 01:55:04,VALID,1003.7,VALID,0,VALID,92.4468,VALID,0,VALID,24.5388,VALID,35,VALID,0.34375,
2012-04-15, 01:56:04,VALID,1003.69,VALID,0,VALID,92.5078,VALID,0,VALID,24.5193,VALID,35,VALID,0.107813,
2012-04-15, 01:57:04,VALID,1003.71,VALID,0,VALID,92.5841,VALID,0,VALID,24.5193,VALID,35,VALID,0.0988281,
2012-04-15, 01:58:04,VALID,1003.71,VALID,0,VALID,92.7138,VALID,0.0815089,VALID,24.4785,VALID,35,VALID,0,
2012-04-15, 01:59:04,VALID,1003.73,VALID,0,VALID,92.7672,VALID,0,VALID,24.5193,VALID,35,VALID,0,
2012-04-15, 02:00:04,VALID,1003.71,VALID,0,VALID,92.813,VALID,0.0815089,VALID,24.5193,VALID,35,VALID,0,
2012-04-15, 02:01:04,VALID,1003.74,VALID,0,VALID,92.9045,VALID,0.0815089,VALID,24.5388,VALID,35,VALID,0,
2012-04-15, 02:02:04,VALID,1003.75,VALID,0,VALID,93.0037,VALID,0,VALID,24.5582,VALID,35,VALID,0,
2012-04-15, 02:03:04,VALID,1003.75,VALID,0,VALID,93.08,VALID,0,VALID,24.5972,VALID,35,VALID,0,
2012-04-15, 02:04:04,VALID,1003.77,VALID,0,VALID,93.0418,VALID,0,VALID,24.5953,VALID,35,VALID,0,
2012-04-15, 02:05:04,VALID,1003.78,VALID,0,VALID,92.9732,VALID,0,VALID,24.6556,VALID,35,VALID,0,
2012-04-15, 02:06:04,VALID,1003.78,VALID,0,VALID,92.8358,VALID,0.0815089,VALID,24.6342,VALID,35,VALID,0,
2012-04-15, 02:07:04,VALID,1003.76,VALID,0,VALID,92.7672,VALID,0,VALID,24.6556,VALID,35,VALID,0,
2012-04-15, 02:08:04,VALID,1003.75,VALID,0,VALID,92.7138,VALID,0,VALID,24.6574,VALID,35,VALID,0,
2012-04-15, 02:09:04,VALID,1003.75,VALID,0,VALID,92.6985,VALID,0,VALID,24.6185,VALID,35,VALID,0,
2012-04-15, 02:10:04,VALID,1003.74,VALID,0,VALID,92.607,VALID,0,VALID,24.6185,VALID,35,VALID,0,
2012-04-15, 02:11:04,VALID,1003.75,VALID,0,VALID,92.5993,VALID,0,VALID,24.6185,VALID,35,VALID,0,
2012-04-15, 02:12:04,VALID,1003.74,VALID,0,VALID,92.546,VALID,0,VALID,24.5601,VALID,35,VALID,0,
2012-04-15, 02:13:04,VALID,1003.72,VALID,0,VALID,92.5002,VALID,0,VALID,24.5388,VALID,35,VALID,0,
2012-04-15, 02:14:04,VALID,1003.76,VALID,0,VALID,92.5536,VALID,0,VALID,24.5212,VALID,35,VALID,0,
2012-04-15, 02:15:04,VALID,1003.73,VALID,0,VALID,92.5765,VALID,0,VALID,24.5212,VALID,35,VALID,0,
2012-04-15, 02:16:04,VALID,1003.71,VALID,0,VALID,92.6222,VALID,0,VALID,24.5017,VALID,35,VALID,0,
2012-04-15, 02:17:04,VALID,1003.72,VALID,0,VALID,92.6756,VALID,0,VALID,24.4609,VALID,35,VALID,0,
2012-04-15, 02:18:04,VALID,1003.71,VALID,0,VALID,92.7367,VALID,0,VALID,24.4628,VALID,35,VALID,0,
2012-04-15, 02:19:04,VALID,1003.68,VALID,0,VALID,92.813,VALID,0,VALID,24.5035,VALID,35,VALID,0,
2012-04-15, 02:20:04,VALID,1003.68,VALID,0,VALID,92.8892,VALID,0,VALID,24.4628,VALID,35,VALID,0,
2012-04-15, 02:21:04,VALID,1003.65,VALID,0,VALID,93.0037,VALID,0,VALID,24.4822,VALID,35,VALID,0,
2012-04-15, 02:22:04,VALID,1003.62,VALID,0,VALID,93.0342,VALID,0,VALID,24.4822,VALID,35,VALID,0,
2012-04-15, 02:23:04,VALID,1003.63,VALID,0,VALID,93.141,VALID,0,VALID,24.5017,VALID,35,VALID,0,
2012-04-15, 02:24:04,VALID,1003.63,VALID,0,VALID,93.1181,VALID,0,VALID,24.459,VALID,35,VALID,0,
2012-04-15, 02:25:04,VALID,1003.59,VALID,0,VALID,93.0952,VALID,0.0815089,VALID,24.4804,VALID,35,VALID,0,
2012-04-15, 02:26:04,VALID,1003.58,VALID,0,VALID,93.1029,VALID,0.0815089,VALID,24.4804,VALID,35,VALID,0,
2012-04-15, 02:27:04,VALID,1003.56,VALID,0,VALID,93.1486,VALID,0,VALID,24.5017,VALID,35,VALID,0,
2012-04-15, 02:28:04,VALID,1003.54,VALID,0,VALID,93.2097,VALID,0,VALID,24.4804,VALID,35,VALID,0,
2012-04-15, 02:29:04,VALID,1003.54,VALID,0,VALID,93.2097,VALID,0.0815089,VALID,24.4804,VALID,35,VALID,0,
2012-04-15, 02:30:04,VALID,1003.53,VALID,0,VALID,93.2249,VALID,0.0815089,VALID,24.459,VALID,35,VALID,0,
2012-04-15, 02:31:04,VALID,1003.55,VALID,0,VALID,93.2402,VALID,0,VALID,24.4804,VALID,35,VALID,0,
2012-04-15, 02:32:04,VALID,1003.54,VALID,0,VALID,93.2783,VALID,0,VALID,24.4804,VALID,35,VALID,0,
2012-04-15, 02:33:04,VALID,1003.55,VALID,0,VALID,93.3165,VALID,0,VALID,24.4998,VALID,35,VALID,0,
2012-04-15, 02:34:04,VALID,1003.57,VALID,0,VALID,93.3317,VALID,0.0815089,VALID,24.4998,VALID,35,VALID,0,
2012-04-15, 02:35:04,VALID,1003.55,VALID,0,VALID,93.3775,VALID,0,VALID,24.4998,VALID,35,VALID,0,
2012-04-15, 02:36:04,VALID,1003.58,VALID,0,VALID,93.347,VALID,0.0815089,VALID,24.5406,VALID,35,VALID,0,
2012-04-15, 02:37:04,VALID,1003.62,VALID,0,VALID,93.3317,VALID,0.0815089,VALID,24.5193,VALID,35,VALID,0,
2012-04-15, 02:38:04,VALID,1003.62,VALID,0,VALID,93.3088,VALID,0,VALID,24.5193,VALID,35,VALID,0,
2012-04-15, 02:39:04,VALID,1003.62,VALID,0,VALID,93.3394,VALID,0.0815089,VALID,24.498,VALID,35,VALID,0,
2012-04-15, 02:40:04,VALID,1003.65,VALID,0,VALID,93.3622,VALID,0.0815089,VALID,24.5174,VALID,35,VALID,0,
2012-04-15, 02:41:04,VALID,1003.66,VALID,0,VALID,93.2936,VALID,0.0815089,VALID,24.5174,VALID,35,VALID,0,
2012-04-15, 02:42:04,VALID,1003.65,VALID,0,VALID,93.3394,VALID,0.0815089,VALID,24.5777,VALID,37,VALID,0,
2012-04-15, 02:43:04,VALID,1003.65,VALID,0,VALID,93.2631,VALID,0,VALID,24.599,VALID,37,VALID,0,
2012-04-15, 02:44:04,VALID,1003.64,VALID,0,VALID,93.1791,VALID,0,VALID,24.5777,VALID,37,VALID,0,
2012-04-15, 02:45:04,VALID,1003.66,VALID,0,VALID,93.0495,VALID,0.0815089,VALID,24.5777,VALID,37,VALID,0,
2012-04-15, 02:46:04,VALID,1003.68,VALID,0,VALID,92.9579,VALID,0.0815089,VALID,24.5369,VALID,37,VALID,0,
2012-04-15, 02:47:04,VALID,1003.68,VALID,0,VALID,92.8969,VALID,0.0815089,VALID,24.5388,VALID,37,VALID,0,
2012-04-15, 02:48:04,VALID,1003.69,VALID,0,VALID,92.9121,VALID,0.0815089,VALID,24.4572,VALID,37,VALID,0,
2012-04-15, 02:49:04,VALID,1003.7,VALID,0,VALID,92.8892,VALID,0.0815089,VALID,24.4609,VALID,37,VALID,0,
2012-04-15, 02:50:04,VALID,1003.67,VALID,0,VALID,92.9426,VALID,0.0815089,VALID,24.4609,VALID,37,VALID,0,
2012-04-15, 02:51:04,VALID,1003.67,VALID,0,VALID,93.0037,VALID,0.0815089,VALID,24.4414,VALID,37,VALID,0,
2012-04-15, 02:52:04,VALID,1003.69,VALID,0,VALID,93.0418,VALID,0.0815089,VALID,24.4414,VALID,37,VALID,0,
2012-04-15, 02:53:04,VALID,1003.67,VALID,0,VALID,93.0495,VALID,0.0815089,VALID,24.4201,VALID,37,VALID,0,
2012-04-15, 02:54:04,VALID,1003.67,VALID,0,VALID,93.1105,VALID,0,VALID,24.4043,VALID,37,VALID,0,
2012-04-15, 02:55:04,VALID,1003.66,VALID,0,VALID,93.1334,VALID,0,VALID,24.4238,VALID,37,VALID,0,
2012-04-15, 02:56:04,VALID,1003.65,VALID,0,VALID,93.2097,VALID,0,VALID,24.4043,VALID,15,VALID,0.653516,
2012-04-15, 02:57:04,VALID,1003.65,VALID,0,VALID,93.1944,VALID,0,VALID,24.4238,VALID,15,VALID,0.517969,
2012-04-15, 02:58:04,VALID,1003.63,VALID,0,VALID,93.2249,VALID,0,VALID,24.4025,VALID,15,VALID,0.537109,
2012-04-15, 02:59:04,VALID,1003.6,VALID,0,VALID,93.2173,VALID,0,VALID,24.4433,VALID,15,VALID,0.326953,
2012-04-15, 03:00:04,VALID,1003.61,VALID,0,VALID,93.1334,VALID,0,VALID,24.383,VALID,15,VALID,0.159375,
2012-04-15, 03:01:04,VALID,1003.59,VALID,0,VALID,93.1334,VALID,0,VALID,24.3849,VALID,15,VALID,0,
2012-04-15, 03:02:04,VALID,1003.59,VALID,0,VALID,93.1944,VALID,0,VALID,24.3636,VALID,15,VALID,0,
2012-04-15, 03:03:04,VALID,1003.59,VALID,0,VALID,93.2173,VALID,0,VALID,24.3849,VALID,15,VALID,0,
2012-04-15, 03:04:04,VALID,1003.57,VALID,0,VALID,93.2631,VALID,0,VALID,24.4062,VALID,15,VALID,0,
2012-04-15, 03:05:04,VALID,1003.56,VALID,0,VALID,93.3012,VALID,0,VALID,24.3636,VALID,15,VALID,0,
2012-04-15, 03:06:04,VALID,1003.52,VALID,0,VALID,93.3775,VALID,0,VALID,24.383,VALID,15,VALID,0,
2012-04-15, 03:07:04,VALID,1003.53,VALID,0,VALID,93.4385,VALID,0,VALID,24.4043,VALID,15,VALID,0,
2012-04-15, 03:08:04,VALID,1003.51,VALID,0,VALID,93.4767,VALID,0,VALID,24.4025,VALID,15,VALID,0,
2012-04-15, 03:09:04,VALID,1003.5,VALID,0,VALID,93.4919,VALID,0,VALID,24.4025,VALID,15,VALID,0,
2012-04-15, 03:10:04,VALID,1003.49,VALID,0,VALID,93.4309,VALID,0,VALID,24.383,VALID,15,VALID,0,
2012-04-15, 03:11:04,VALID,1003.5,VALID,0,VALID,93.4462,VALID,0,VALID,24.4043,VALID,15,VALID,0.320313,
2012-04-15, 03:12:04,VALID,1003.51,VALID,0,VALID,93.4156,VALID,0,VALID,24.3636,VALID,15,VALID,0.412891,
2012-04-15, 03:13:04,VALID,1003.52,VALID,0,VALID,93.4385,VALID,0,VALID,24.3849,VALID,15,VALID,0.360547,
2012-04-15, 03:14:04,VALID,1003.51,VALID,0,VALID,93.4309,VALID,0,VALID,24.3654,VALID,15,VALID,0.000390625,
2012-04-15, 03:15:04,VALID,1003.5,VALID,0,VALID,93.4309,VALID,0,VALID,24.3246,VALID,15,VALID,0,
2012-04-15, 03:16:04,VALID,1003.52,VALID,0,VALID,93.4538,VALID,0,VALID,24.3459,VALID,15,VALID,0,
2012-04-15, 03:17:04,VALID,1003.52,VALID,0,VALID,93.5072,VALID,0,VALID,24.3459,VALID,15,VALID,0,
2012-04-15, 03:18:04,VALID,1003.54,VALID,0,VALID,93.5224,VALID,0,VALID,24.3459,VALID,15,VALID,0,
2012-04-15, 03:19:04,VALID,1003.52,VALID,0,VALID,93.5758,VALID,0,VALID,24.3052,VALID,15,VALID,0,
2012-04-15, 03:20:04,VALID,1003.55,VALID,0,VALID,93.5835,VALID,0,VALID,24.307,VALID,15,VALID,0,
2012-04-15, 03:21:04,VALID,1003.56,VALID,0,VALID,93.5682,VALID,0,VALID,24.3052,VALID,15,VALID,0,
2012-04-15, 03:22:04,VALID,1003.59,VALID,0,VALID,93.553,VALID,0,VALID,24.2857,VALID,15,VALID,0,
2012-04-15, 03:23:04,VALID,1003.58,VALID,0,VALID,93.5911,VALID,0,VALID,24.307,VALID,15,VALID,0,
2012-04-15, 03:24:04,VALID,1003.6,VALID,0,VALID,93.6292,VALID,0.0815089,VALID,24.3052,VALID,15,VALID,0,
2012-04-15, 03:25:04,VALID,1003.59,VALID,0,VALID,93.6979,VALID,0.0815089,VALID,24.2857,VALID,15,VALID,0,
2012-04-15, 03:26:04,VALID,1003.6,VALID,0,VALID,93.7742,VALID,0,VALID,24.2839,VALID,15,VALID,0,
2012-04-15, 03:27:04,VALID,1003.59,VALID,0,VALID,93.7895,VALID,0,VALID,24.3246,VALID,15,VALID,0,
2012-04-15, 03:28:04,VALID,1003.58,VALID,0,VALID,93.8657,VALID,0.0815089,VALID,24.3441,VALID,15,VALID,0,
2012-04-15, 03:29:04,VALID,1003.59,VALID,0,VALID,93.8276,VALID,0,VALID,24.3441,VALID,15,VALID,0,
2012-04-15, 03:30:04,VALID,1003.6,VALID,0,VALID,93.8734,VALID,0.0815089,VALID,24.3228,VALID,15,VALID,0,
2012-04-15, 03:31:04,VALID,1003.58,VALID,0,VALID,93.8505,VALID,0.0815089,VALID,24.3636,VALID,15,VALID,0,
2012-04-15, 03:32:04,VALID,1003.57,VALID,0,VALID,93.8657,VALID,0.0815089,VALID,24.3422,VALID,15,VALID,0,
2012-04-15, 03:33:04,VALID,1003.58,VALID,0,VALID,93.881,VALID,0.0815089,VALID,24.3617,VALID,15,VALID,0,
2012-04-15, 03:34:04,VALID,1003.6,VALID,0,VALID,93.9039,VALID,0.0815089,VALID,24.383,VALID,15,VALID,0,
2012-04-15, 03:35:04,VALID,1003.56,VALID,0,VALID,93.8963,VALID,0.0815089,VALID,24.383,VALID,15,VALID,0,
2012-04-15, 03:36:04,VALID,1003.59,VALID,0,VALID,93.9497,VALID,0.0815089,VALID,24.3812,VALID,15,VALID,0,
2012-04-15, 03:37:04,VALID,1003.54,VALID,0,VALID,93.9191,VALID,0.0815089,VALID,24.3812,VALID,15,VALID,0,
2012-04-15, 03:38:04,VALID,1003.52,VALID,0,VALID,93.8886,VALID,0.0815089,VALID,24.3617,VALID,15,VALID,0,
2012-04-15, 03:39:04,VALID,1003.54,VALID,0,VALID,93.8734,VALID,0,VALID,24.3849,VALID,15,VALID,0,
2012-04-15, 03:40:04,VALID,1003.54,VALID,0,VALID,93.8963,VALID,0,VALID,24.3849,VALID,15,VALID,0,
2012-04-15, 03:41:04,VALID,1003.56,VALID,0,VALID,93.8581,VALID,0,VALID,24.3246,VALID,15,VALID,0,
2012-04-15, 03:42:04,VALID,1003.56,VALID,0,VALID,93.8734,VALID,0,VALID,24.3246,VALID,15,VALID,0,
2012-04-15, 03:43:04,VALID,1003.56,VALID,0,VALID,93.8429,VALID,0,VALID,24.3052,VALID,15,VALID,0,
2012-04-15, 03:44:04,VALID,1003.55,VALID,0,VALID,93.82,VALID,0,VALID,24.2681,VALID,15,VALID,0,
2012-04-15, 03:45:04,VALID,1003.53,VALID,0,VALID,93.881,VALID,0,VALID,24.2875,VALID,15,VALID,0,
2012-04-15, 03:46:04,VALID,1003.52,VALID,0,VALID,93.8734,VALID,0,VALID,24.2273,VALID,15,VALID,0,
2012-04-15, 03:47:04,VALID,1003.5,VALID,0,VALID,93.8429,VALID,0,VALID,24.2291,VALID,15,VALID,0,
2012-04-15, 03:48:04,VALID,1003.48,VALID,0,VALID,93.8581,VALID,0,VALID,24.2291,VALID,15,VALID,0,
2012-04-15, 03:49:04,VALID,1003.46,VALID,0,VALID,93.9039,VALID,0,VALID,24.1884,VALID,15,VALID,0,
2012-04-15, 03:50:04,VALID,1003.44,VALID,0,VALID,93.9344,VALID,0,VALID,24.2097,VALID,15,VALID,0,
2012-04-15, 03:51:04,VALID,1003.43,VALID,0,VALID,94.0031,VALID,0,VALID,24.2097,VALID,15,VALID,0,